TimeMST,TemperatureF,Dew PointF,Humidity,Sea Level PressureIn,VisibilityMPH,Wind Direction,Wind SpeedMPH,Gust SpeedMPH,PrecipitationIn,Events,Conditions,WindDirDegrees,DateUTC
12:09 AM,6.8,1.2,78,30.24,10.0,Calm,Calm,-,N/A,,Clear,0,2013-03-05 07:09:00
12:29 AM,5.2,0.1,80,30.24,10.0,Calm,Calm,-,N/A,,Clear,0,2013-03-05 07:29:00
12:47 AM,6.4,1.0,78,30.25,10.0,Calm,Calm,-,N/A,,Clear,0,2013-03-05 07:47:00
1:08 AM,4.3,-0.4,81,30.25,10.0,Calm,Calm,-,N/A,,Clear,0,2013-03-05 08:08:00
1:27 AM,3.2,-1.5,81,30.26,10.0,Calm,Calm,-,N/A,,Clear,0,2013-03-05 08:27:00
1:46 AM,3.4,-1.3,81,30.26,10.0,Calm,Calm,-,N/A,,Clear,0,2013-03-05 08:46:00
2:07 AM,2.3,-2.6,80,30.27,10.0,Calm,Calm,-,N/A,,Clear,0,2013-03-05 09:07:00
2:27 AM,2.3,-2.4,81,30.27,10.0,Calm,Calm,-,N/A,,Clear,0,2013-03-05 09:27:00
2:49 AM,-0.2,-4.7,81,30.28,10.0,Calm,Calm,-,N/A,,Clear,0,2013-03-05 09:49:00
3:08 AM,2.7,-1.1,84,30.28,10.0,Calm,Calm,-,N/A,,Clear,0,2013-03-05 10:08:00
3:27 AM,1.9,-2.0,83,30.28,10.0,Calm,Calm,-,N/A,,Clear,0,2013-03-05 10:27:00
3:48 AM,1.8,-3.1,80,30.28,10.0,Calm,Calm,-,N/A,,Clear,0,2013-03-05 10:48:00
4:08 AM,-0.4,-4.2,84,30.28,10.0,Calm,Calm,-,N/A,,Clear,0,2013-03-05 11:08:00
4:29 AM,-0.9,-5.1,83,30.29,10.0,NW,3.5,-,N/A,,Clear,320,2013-03-05 11:29:00
4:48 AM,-0.4,-4.2,84,30.30,10.0,Calm,Calm,-,N/A,,Clear,0,2013-03-05 11:48:00
5:08 AM,0.3,-3.8,83,30.30,10.0,Calm,Calm,-,N/A,,Clear,0,2013-03-05 12:08:00
5:29 AM,-0.6,-4.2,85,30.30,10.0,ESE,3.5,-,N/A,,Clear,120,2013-03-05 12:29:00
6:28 AM,-1.7,-4.9,86,30.31,10.0,Calm,Calm,-,N/A,,Clear,0,2013-03-05 13:28:00
6:47 AM,-0.4,-4.0,85,30.32,10.0,Calm,Calm,-,N/A,,Clear,0,2013-03-05 13:47:00
7:07 AM,-2.7,-6.7,83,30.32,10.0,Calm,Calm,-,N/A,,Clear,0,2013-03-05 14:07:00
7:27 AM,-1.3,-5.4,83,30.32,10.0,Calm,Calm,-,N/A,,Clear,0,2013-03-05 14:27:00
7:47 AM,-2.2,-6.9,80,30.33,10.0,Calm,Calm,-,N/A,,Clear,0,2013-03-05 14:47:00
8:08 AM,1.2,-3.6,80,30.33,2.5,Calm,Calm,-,N/A,,Clear,0,2013-03-05 15:08:00
8:29 AM,3.2,-2.4,78,30.33,10.0,Calm,Calm,-,N/A,,Clear,0,2013-03-05 15:29:00
8:46 AM,4.5,-2.6,73,30.32,10.0,Calm,Calm,-,N/A,,Clear,0,2013-03-05 15:46:00
9:08 AM,7.7,-0.8,68,30.32,10.0,Calm,Calm,-,N/A,,Clear,0,2013-03-05 16:08:00
9:29 AM,9.9,-0.8,62,30.32,10.0,Calm,Calm,-,N/A,,Clear,0,2013-03-05 16:29:00
9:48 AM,11.5,1.4,64,30.31,10.0,Calm,Calm,-,N/A,,Clear,0,2013-03-05 16:48:00
10:07 AM,11.3,-0.4,59,30.31,10.0,Calm,Calm,-,N/A,,Clear,0,2013-03-05 17:07:00
10:28 AM,15.1,3.4,60,30.30,10.0,Calm,Calm,-,N/A,,Clear,0,2013-03-05 17:28:00
10:47 AM,16.9,3.6,56,30.30,10.0,Calm,Calm,-,N/A,,Clear,0,2013-03-05 17:47:00
11:08 AM,18.5,4.1,54,30.29,10.0,Calm,Calm,-,N/A,,Clear,0,2013-03-05 18:08:00
11:29 AM,17.8,4.1,55,30.29,10.0,Calm,Calm,-,N/A,,Clear,0,2013-03-05 18:29:00
11:49 AM,22.8,5.9,48,30.28,10.0,Calm,Calm,-,N/A,,Clear,0,2013-03-05 18:49:00
12:08 PM,24.8,8.6,50,30.27,10.0,Calm,Calm,-,N/A,,Clear,0,2013-03-05 19:08:00
12:28 PM,26.6,8.6,47,30.26,10.0,Calm,Calm,-,N/A,,Clear,0,2013-03-05 19:28:00
12:47 PM,24.6,9.0,51,30.25,10.0,Calm,Calm,-,N/A,,Clear,0,2013-03-05 19:47:00
1:09 PM,28.8,10.2,46,30.23,10.0,Calm,Calm,-,N/A,,Clear,0,2013-03-05 20:09:00
1:28 PM,28.8,11.3,48,30.22,10.0,Calm,Calm,-,N/A,,Clear,0,2013-03-05 20:28:00
1:48 PM,28.8,11.3,48,30.21,10.0,Calm,Calm,-,N/A,,Clear,0,2013-03-05 20:48:00
2:09 PM,29.5,10.4,45,30.20,10.0,Calm,Calm,-,N/A,,Clear,0,2013-03-05 21:09:00
2:29 PM,31.5,9.7,40,30.20,10.0,Calm,Calm,-,N/A,,Clear,0,2013-03-05 21:29:00
2:48 PM,32.7,9.9,39,30.19,10.0,Calm,Calm,-,N/A,,Clear,0,2013-03-05 21:48:00
3:08 PM,35.1,5.0,28,30.18,10.0,Calm,Calm,-,N/A,,Clear,0,2013-03-05 22:08:00
3:28 PM,33.8,4.8,30,30.18,10.0,Calm,Calm,-,N/A,,Clear,0,2013-03-05 22:28:00
3:49 PM,35.1,2.5,25,30.17,10.0,Calm,Calm,-,N/A,,Clear,0,2013-03-05 22:49:00
4:08 PM,31.8,9.7,40,30.16,10.0,Calm,Calm,-,N/A,,Clear,0,2013-03-05 23:08:00
4:29 PM,30.9,12.0,46,30.16,10.0,Calm,Calm,-,N/A,,Clear,0,2013-03-05 23:29:00
4:47 PM,30.9,11.8,45,30.16,10.0,Calm,Calm,-,N/A,,Clear,0,2013-03-05 23:47:00
5:08 PM,31.6,11.3,43,30.15,10.0,Calm,Calm,-,N/A,,Clear,0,2013-03-06 00:08:00
5:27 PM,30.2,10.4,44,30.15,10.0,Calm,Calm,-,N/A,,Clear,0,2013-03-06 00:27:00
5:49 PM,27.5,11.7,51,30.15,10.0,Calm,Calm,-,N/A,,Clear,0,2013-03-06 00:49:00
6:08 PM,25.2,11.8,57,30.15,10.0,Calm,Calm,-,N/A,,Clear,0,2013-03-06 01:08:00
6:29 PM,23.4,10.9,59,30.14,10.0,Calm,Calm,-,N/A,,Clear,0,2013-03-06 01:29:00
6:48 PM,21.9,10.6,62,30.15,10.0,Calm,Calm,-,N/A,,Clear,0,2013-03-06 01:48:00
7:07 PM,21.0,9.9,62,30.14,10.0,Calm,Calm,-,N/A,,Clear,0,2013-03-06 02:07:00
7:28 PM,22.3,10.6,61,30.14,10.0,Calm,Calm,-,N/A,,Clear,0,2013-03-06 02:28:00
7:48 PM,19.8,10.9,69,30.14,10.0,Calm,Calm,-,N/A,,Clear,0,2013-03-06 02:48:00
8:07 PM,19.4,10.0,67,30.14,10.0,Calm,Calm,-,N/A,,Clear,0,2013-03-06 03:07:00
8:28 PM,20.3,10.8,67,30.13,10.0,Calm,Calm,-,N/A,,Clear,0,2013-03-06 03:28:00
8:47 PM,18.7,9.7,68,30.14,10.0,Calm,Calm,-,N/A,,Clear,0,2013-03-06 03:47:00
9:09 PM,18.5,10.6,71,30.14,10.0,Calm,Calm,-,N/A,,Clear,0,2013-03-06 04:09:00
9:29 PM,16.9,10.0,75,30.14,10.0,Calm,Calm,-,N/A,,Clear,0,2013-03-06 04:29:00
9:49 PM,15.1,9.0,77,30.14,10.0,Calm,Calm,-,N/A,,Clear,0,2013-03-06 04:49:00
10:09 PM,14.7,10.4,83,30.14,10.0,Calm,Calm,-,N/A,,Clear,0,2013-03-06 05:09:00
10:28 PM,14.2,8.8,79,30.15,10.0,Calm,Calm,-,N/A,,Clear,0,2013-03-06 05:28:00
10:49 PM,15.3,10.9,83,30.15,10.0,Calm,Calm,-,N/A,,Clear,0,2013-03-06 05:49:00
11:09 PM,15.3,10.4,81,30.15,10.0,Calm,Calm,-,N/A,,Clear,0,2013-03-06 06:09:00
11:35 PM,12.7,8.4,83,30.15,10.0,Calm,Calm,-,N/A,,Clear,0,2013-03-06 06:35:00
11:55 PM,12.4,8.6,85,30.15,10.0,Calm,Calm,-,N/A,,Clear,0,2013-03-06 06:55:00